TimeEDT,TemperatureF,Dew PointF,Humidity,Sea Level PressureIn,VisibilityMPH,Wind Direction,Wind SpeedMPH,Gust SpeedMPH,PrecipitationIn,Events,Conditions,WindDirDegrees,DateUTC
12:54 AM,55.9,50.0,80,29.88,10.0,WSW,4.6,-,N/A,,Clear,240,2011-10-15 04:54:00
1:54 AM,55.0,48.9,80,29.90,10.0,West,5.8,-,N/A,,Clear,260,2011-10-15 05:54:00
2:54 AM,55.9,48.9,77,29.90,10.0,West,5.8,-,N/A,,Clear,260,2011-10-15 06:54:00
3:54 AM,53.1,48.9,86,29.91,10.0,Calm,Calm,-,N/A,,Clear,0,2011-10-15 07:54:00
4:54 AM,51.1,48.9,92,29.92,10.0,Calm,Calm,-,N/A,,Clear,0,2011-10-15 08:54:00
5:54 AM,50.0,48.0,93,29.93,10.0,Calm,Calm,-,N/A,,Clear,0,2011-10-15 09:54:00
6:54 AM,48.9,46.9,93,29.93,10.0,Calm,Calm,-,N/A,,Clear,0,2011-10-15 10:54:00
7:54 AM,52.0,48.9,89,29.94,10.0,Calm,Calm,-,N/A,,Clear,0,2011-10-15 11:54:00
9:54 AM,64.9,50.0,58,29.97,10.0,West,6.9,-,N/A,,Clear,270,2011-10-15 13:54:00
10:54 AM,71.1,50.0,47,29.98,10.0,West,10.4,-,N/A,,Clear,280,2011-10-15 14:54:00
11:02 AM,71.6,50.0,46,29.98,10.0,West,8.1,-,N/A,,Partly Cloudy,280,2011-10-15 15:02:00
11:54 AM,75.0,48.9,40,29.97,10.0,West,12.7,20.7,N/A,,Clear,280,2011-10-15 15:54:00
12:54 PM,77.0,50.0,39,29.96,10.0,WNW,10.4,21.9,N/A,,Clear,300,2011-10-15 16:54:00
1:54 PM,79.0,48.9,35,29.94,10.0,West,6.9,18.4,N/A,,Clear,260,2011-10-15 17:54:00
2:54 PM,79.0,44.1,29,29.92,10.0,West,17.3,23.0,N/A,,Clear,280,2011-10-15 18:54:00
3:54 PM,79.0,42.1,27,29.92,10.0,West,13.8,23.0,N/A,,Clear,280,2011-10-15 19:54:00
4:54 PM,79.0,42.1,27,29.92,10.0,WNW,9.2,19.6,N/A,,Clear,290,2011-10-15 20:54:00
6:54 PM,64.9,52.0,63,29.95,10.0,Calm,Calm,-,N/A,,Clear,0,2011-10-15 22:54:00
7:54 PM,59.0,53.1,81,29.97,10.0,Calm,Calm,-,N/A,,Clear,0,2011-10-15 23:54:00
8:54 PM,55.9,52.0,87,29.99,10.0,Calm,Calm,-,N/A,,Clear,0,2011-10-16 00:54:00
9:54 PM,55.0,52.0,89,29.99,10.0,Calm,Calm,-,N/A,,Clear,0,2011-10-16 01:54:00
10:54 PM,53.1,50.0,89,30.00,10.0,Calm,Calm,-,N/A,,Clear,0,2011-10-16 02:54:00
11:54 PM,52.0,50.0,93,30.02,10.0,Calm,Calm,-,N/A,,Clear,0,2011-10-16 03:54:00